User: anonymous   Login
Location: Montr�al
(45.5000°N, 73.5830°W)
Time: 11:15:26
(UTC-05:00)
Language:

Cosmos 2369 - Orbit

View from above orbital plane
View from above orbital plane
View from above satellite
View from above satellite

Ground track
Ground track

The orbit data is extracted from the following two-line orbital elements,

1 26069U 00006A   17021.71797210 -.00000226  00000-0 -94833-4 0  9997
2 26069  70.9974 305.8998 0008033  91.4308 268.7734 14.13352419875428
Epoch (UTC): 21 January 2017 17:13:52
Eccentricity: 0.0008033
inclination: 70.9974°
perigee height: 842 km
apogee height: 854 km
right ascension of ascending node: 305.8998°
argument of perigee: 91.4308°
revolutions per day: 14.13352419
mean anomaly at epoch: 268.7734°
orbit number at epoch: 87542

The dashed part of the orbit path shows where the satellite is in the earth's shadow,  

DLR